This is the latest recevied weather packets stored in our database for station/object S57ZT-10. If no packets are shown the sender has not sent any weather packets the latest 10 day(s).
| Time | Temp. | Humidity | Pressure | Rain* | Wind** | Luminosity | Snow |
|---|---|---|---|---|---|---|---|
| 1777531621 | 11.67° C | 35% | 1030.8 hPa | - | - | - | - |
| 1777531569 | 11.67° C | 35% | 1030.8 hPa | - | - | - | - |
| 1777530669 | 11.11° C | 35% | 1030.7 hPa | - | - | - | - |
| 1777529827 | 10.56° C | 36% | 1030.7 hPa | - | - | - | - |
| 1777529769 | 10.56° C | 36% | 1030.7 hPa | - | - | - | - |
| 1777527967 | 8.89° C | 40% | 1030.9 hPa | - | - | - | - |
| 1777527119 | 8.33° C | 39% | 1030.8 hPa | - | - | - | - |
| 1777527068 | 8.33° C | 39% | 1030.8 hPa | - | - | - | - |
| 1777526203 | 8.33° C | 41% | 1030.7 hPa | - | - | - | - |
| 1777525308 | 7.78° C | 41% | 1030.6 hPa | - | - | - | - |
| 1777525270 | 7.78° C | 41% | 1030.6 hPa | - | - | - | - |
| 1777524401 | 7.78° C | 41% | 1030.5 hPa | - | - | - | - |
| 1777524366 | 7.78° C | 41% | 1030.5 hPa | - | - | - | - |
| 1777523518 | 7.78° C | 41% | 1030.3 hPa | - | - | - | - |
| 1777523468 | 7.78° C | 41% | 1030.3 hPa | - | - | - | - |
| 1777519466 | 8.33° C | 40% | 1030.2 hPa | - | - | - | - |
| 1777518978 | 8.33° C | 40% | 1030.2 hPa | - | - | - | - |
| 1777518071 | 8.33° C | 40% | 1030 hPa | - | - | - | - |
| 1777517201 | 8.33° C | 40% | 1030.1 hPa | - | - | - | - |
| 1777516264 | 8.33° C | 41% | 1030 hPa | - | - | - | - |
| 1777514470 | 8.89° C | 41% | 1030 hPa | - | - | - | - |
| 1777513662 | 8.89° C | 41% | 1030 hPa | - | - | - | - |
| 1777511882 | 8.89° C | 42% | 1030 hPa | - | - | - | - |
| 1777511766 | 8.89° C | 42% | 1030 hPa | - | - | - | - |
| 1777510859 | 9.44° C | 43% | 1029.9 hPa | - | - | - | - |
* Rain since midnight (hover to see other rain measurements)
** Current wind speed in m/s (hover to see current wind gust speed)